Overview Statistics Trail Chart Weather Telemetry Raw packets
 

This is the latest recevied weather packets stored in our database for station/object VE8SKI. If no packets are shown the sender has not sent any weather packets the latest 10 day(s).

<< 92 93 94 95 96 97 98 >>
Time Temp. Humidity Pressure Rain* Wind** Luminosity Snow
1777418109 5° C 62% 1016.3 hPa 0 mm 1.34 m/s, 191° - -
1777417809 4.44° C 61% 1016.3 hPa 0 mm 0 m/s - -
1777417510 4.44° C 62% 1016.2 hPa 0 mm 1.34 m/s, 281° - -
1777417210 3.89° C 62% 1016.2 hPa 0 mm 0.89 m/s, 212° - -
1777416910 4.44° C 61% 1016.2 hPa 0 mm 0.89 m/s, 256° - -
1777416610 4.44° C 61% 1016.2 hPa 0 mm 1.79 m/s, 314° - -
1777416309 4.44° C 62% 1016.3 hPa 0 mm 1.34 m/s, 250° - -
1777416009 4.44° C 60% 1016.3 hPa 0 mm 0.89 m/s, 359° - -
1777415710 4.44° C 60% 1016.3 hPa 0 mm 0.89 m/s, 238° - -
1777415410 4.44° C 59% 1016.4 hPa 0 mm 1.79 m/s, 255° - -
1777415111 5° C 59% 1016.5 hPa 0 mm 1.34 m/s, 0° - -
1777414809 5° C 59% 1016.4 hPa 0 mm 1.34 m/s, 246° - -
1777414509 4.44° C 59% 1016.5 hPa 0 mm 1.34 m/s, 233° - -
1777414209 4.44° C 59% 1016.5 hPa 0 mm 1.34 m/s, 322° - -
1777413910 4.44° C 59% 1016.4 hPa 0 mm 1.34 m/s, 277° - -
1777413610 5° C 58% 1016.3 hPa 0 mm 1.34 m/s, 245° - -
1777413311 4.44° C 59% 1016.3 hPa 0 mm 1.79 m/s, 291° - -
1777413009 4.44° C 58% 1016.4 hPa 0 mm 1.79 m/s, 304° - -
1777412709 4.44° C 59% 1016.4 hPa 0 mm 0.45 m/s, 359° - -
1777412409 3.89° C 59% 1016.3 hPa 0 mm 1.34 m/s, 283° - -
1777412110 5° C 57% 1016.2 hPa 0 mm 1.34 m/s, 77° - -
1777411810 5° C 58% 1016.1 hPa 0 mm 0.89 m/s, 25° - -
1777411511 5° C 59% 1016.1 hPa 0 mm 0.45 m/s, 283° - -
1777411209 4.44° C 59% 1016.1 hPa 0 mm 1.79 m/s, 207° - -
1777410909 4.44° C 59% 1016 hPa 0 mm 0.89 m/s, 253° - -

* Rain latest hour (hover to see other rain measurements)
** Current wind speed in m/s (hover to see current wind gust speed)